Location: �clusier
(49.9361°N, 2.7869°E)
Time: 21:22:55
(UTC+00:00)

H-2A R/B - Pass Details

Date: 16 June 2021
Orbit: 574 x 597 km, 98.2° (Epoch: 01 August)

Event Time Altitude Azimuth Distance (km) Brightness Sun altitude
Rises 21:59:57 0° 14° (NNE) 2,801 7.8 -12.7°
Reaches altitude 10° 22:02:07 10° 14° (NNE) 1,896 6.8 -12.9°
Maximum altitude 22:06:14 88° 283° (WNW) 582 3.4 -13.2°
Enters shadow 22:09:42 14° 197° (SSW) 1,631 5.3 -13.4°
